Regional Weather Roundup
Issued by NWS Spokane, WA

Home | Current Version | Previous Version | Text Only | Print | Product List | Glossary On
Versions: 1 2 3 4 5 6 7 8 9 10 11 12 13 14 15 16 17 18 19 20 21 22 23 24 25 26 27 28 29 30 31 32 33 34 35 36 37 38 39 40 41 42 43 44 45 46 47 48 49 50
000
NZUS01 KOTX 041310
RWROTX
EASTERN WASHINGTON/NORTHERN IDAHO ROUNDUP
NATIONAL WEATHER SERVICE, SPOKANE WA
600 AM PDT FRI SEP 04 2015

Note: "fair" indicated few or no clouds below 12,000 feet with no
significant weather and/or obstructions to visibility.

...NORTHEAST WASHINGTON AND NORTHERN IDAHO PANHANDLE...

CITY           SKY/WX    TMP DP  RH WIND       PRES   REMARKS
SPOKANE INTL   PTCLDY    44  35  70 E5        29.95S
SPOKANE DOWNTO PTCLDY    41  36  82 N3        29.97S
COEUR D ALENE  CLEAR     39  32  75 NE7       29.96S
DEER PARK      CLEAR     41  32  70 N6        29.96F
SANDPOINT      PTCLDY    34  34 100 CALM      29.98F
BONNERS FERRY  CLOUDY    41  39  93 CALM      30.01R

...SOUTHEAST WASHINGTON AND SOUTHERN IDAHO PANHANDLE...

CITY           SKY/WX    TMP DP  RH WIND       PRES   REMARKS
WALLA WALLA    CLEAR     45  34  65 SE3       29.93S
PULLMAN/MOSCOW CLEAR     39  36  89 CALM      29.96R
LEWISTON       CLEAR     45  42  89 NW3       29.95R
LOWELL           N/A     48  45  89 CALM      29.96S

...COLUMBIA BASIN...

CITY           SKY/WX    TMP DP  RH WIND       PRES   REMARKS
EPHRATA        PTCLDY    45  32  60 N7        29.93S
MOSES LAKE     PTCLDY    40  29  64 N7        29.94R
TRI CITIES     PTCLDY    39  36  89 N3        29.93F
HERMISTON      PTCLDY    40  35  83 SE3       29.93S
PENDLETON      CLEAR     41  30  65 SE8       29.93S

...EAST SLOPES CASCADES...

CITY           SKY/WX    TMP DP  RH WIND       PRES   REMARKS
THE DALLES     PTCLDY    47  41  80 S3        29.95R
YAKIMA         MOCLDY    45  35  68 W8        29.94F
ELLENSBURG     PTCLDY    42  35  76 CALM      29.94S
WENATCHEE      CLOUDY    51  38  60 W7        29.95S
OMAK           PTCLDY    51  36  56 NW10      29.98R

...SOUTHERN BRITISH COLUMBIA...

CITY           SKY/WX    TMP DP  RH WIND       PRES   REMARKS
PENTICTON      PTCLDY    46  37  71 N8        30.02R
CASTLEGAR      MOCLDY    48  43  81 NE9       30.04
CRANBROOK      PTCLDY    37  34  87 W6        30.04R

...WESTERN MONTANA...

CITY           SKY/WX    TMP DP  RH WIND       PRES   REMARKS
MISSOULA       CLOUDY    43  42  97 W3        29.98R FOG

...NEIGHBORING CITIES...

CITY           SKY/WX    TMP DP  RH WIND       PRES   REMARKS
SEATTLE        CLOUDY    52  49  89 NE8       30.00S
CALGARY        MOCLDY    39  36  87 N12G18    30.07R



USA.gov is the U.S. government's official web portal to all federal, state and local government web resources and services.